PEGASUS DEB, 39929

Orbit data source: Space-Track

PEGASUS DEB, 39929 is space debris in LEO originally from a launch on Thu, 19 May 1994 UTC launched from the Air Force Western Test Range (AFWTR). Debris objects in space refer to the collection of defunct objects orbiting the Earth. Examples of debris include non-operational satellites, rocket bodies, and fragments generated from explosions, collisions, or faulty payload assembly.

Loading next visibility...
Identifier
39929, 1994-029AGC
Orbit
LEO
Country
Flag of USUS
Related business
Manufacturer
Unknown
Mission
Spacecraft
Bus & Motor
Unknown
Mass
Unknown
Launch date (UTC)
1994-05-19 (32 years ago)
Launch vehicle
Unknown
Launch site
Air Force Western Test Range (AFWTR)
Object type
Payload
Rocket body
Debris
Shape & HBR
Unknown shape, 0.1 m
Radar Cross Section
Small (<0.1 m²)

Expand to show TLE details & history
Last TLE update: 6 hours ago

TLE from 6 hours ago
0 PEGASUS DEB
1 39929U 94029AGC 26176.28657133  .00003347  00000-0  55972-3 0  9991
2 39929  81.9418 188.7992 0234720 128.7095 233.5351 14.52934916632129
Epoch: 2026-06-25T06:52Z
TLE epoch observation values (Epoch: 2026-06-25T06:52:39.762Z)
Latitude
0.00003°
Longitude
172.20192°
Altitude
820.525 km
Speed
7.389 km/s
True Right ascension
12h 35m 11s
True Declination
0° 00' 00"
Sunlit
Object was in daylight at epoch
Visualization orbit readout
Latitude
Unknown
Longitude
Unknown
Altitude
Unknown
Speed
Unknown
Apparent Right ascension
Unknown
Apparent Declination
Unknown
Sunlit
N/A
Visualization observer readout
Local Sidereal Time
00:11:37
Azimuth
Unknown
Elevation
Unknown
Doppler factor
Unknown
Orbital elements
Apogee altitude
879.608 km
Perigee altitude
546.714 km
Semi-major axis
7,091.298 km
Eccentricity
0.02347
Inclination
81.9418°
RAAN
188.7992°
Arg. of periapsis
128.7095°
True anomaly
231.40958°
Mean anomaly
233.5351°
Eccentric anomaly
232.46861°
Mean motion
3.63458 °/min
Orbital period
99.05 mins
BSTAR
0.00055972
Loading maneuver chart data...
Computing Atmospheric mass density...

Documentation

Showing up to 5 results
|